sat.trackr.live / text

‹ back to catalog

STARLINK-32097

NORAD 60351 · 2024-136Y

PAYLOAD ACTIVE UNKNOWN

§ Identity

Operator
Country
US
Launch date
2024-08-02
Launch site
AFETR
Launch vehicle
Mass (kg)
RCS (m²)

Purposes: comms

External: N2YO · Heavens-Above · Gunter

§ Orbital elements

Epoch: 2026-05-25T02:52:59.168928Z

Period
93.85 min
Inclination
53.1617°
Eccentricity
0.0001377
Mean motion
15.34375025 rev/d
Perigee alt
461.8 km
Apogee alt
463.7 km
Semi-major
6,840.9 km
B*
-4.3657e-5
RAAN
79.4276°
Arg perigee
103.5489°
Mean anomaly
256.5667°
Rev number
10,138

§ Raw data

STARLINK-320971 60351U 24136Y   26145.12012927 -.00001850  00000+0 -43657-4 0  99972 60351  53.1617  79.4276 0001377 103.5489 256.5667 15.34375025101388

JSON: /api/v1/satellites/60351 · /tle

For live sub-satellite position, see the globe view (requires WebGL).

§ Visibility from observer

Set your observer location to see the next 7 days of passes ≥ 10°. The values pass through the URL so the page stays shareable.

No JS? Fill the form by hand. The geolocation button needs JavaScript.